Location: Unspecified
(0.0000°N, 0.0000°E)
Time: 16:38:00
(UTC+00:00)

N. Korean satellite - Pass Details

Date: 16 September 2020
Orbit: 455 x 503 km, 97.2° (Epoch: 19 September)

Event Time Altitude Azimuth Distance (km) Brightness Sun altitude
Rises 04:44:35 0° 27° (NNE) 2,553 10.6 -17.5°
Reaches altitude 10° 04:46:49 10° 37° (NE) 1,667 9.8 -17.0°
Maximum altitude 04:50:01 31° 101° (E) 865 8.5 -16.2°
Drops below altitude 10° 04:53:12 10° 164° (SSE) 1,650 9.4 -15.4°
Sets 04:55:23 0° 175° (S) 2,522 10.2 -14.8°
